Time,TemperatureF,DewpointF,PressureIn,WindDirection,WindDirectionDegrees,WindSpeedMPH,WindSpeedGustMPH,Humidity,HourlyPrecipIn,Conditions,Clouds,dailyrainin,SolarRadiationWatts/m^2,SoftwareType,DateUTC
2013-01-26 00:28:00,53.9,46.0,30.21,SSW,196,0.0,0.0,74,0.00,,,0.00,0,weatherlink.com 1.10,2013-01-26 05:28:00,
2013-01-26 00:44:00,53.6,46.0,30.21,SSW,195,0.0,0.0,75,0.00,,,0.00,0,weatherlink.com 1.10,2013-01-26 05:44:00,
2013-01-26 00:58:00,53.2,46.0,30.21,SSW,196,0.0,0.0,76,0.00,,,0.00,0,weatherlink.com 1.10,2013-01-26 05:58:00,
2013-01-26 01:13:00,52.9,46.0,30.21,SSW,196,0.0,0.0,77,0.00,,,0.00,0,weatherlink.com 1.10,2013-01-26 06:13:00,
2013-01-26 01:28:00,52.4,46.0,30.21,SSW,196,0.0,0.0,78,0.00,,,0.00,0,weatherlink.com 1.10,2013-01-26 06:28:00,
2013-01-26 01:44:00,52.1,46.0,30.21,SSW,196,0.0,0.0,79,0.00,,,0.00,0,weatherlink.com 1.10,2013-01-26 06:44:00,
2013-01-26 01:58:00,51.9,46.0,30.21,SSW,196,0.0,0.0,80,0.00,,,0.00,0,weatherlink.com 1.10,2013-01-26 06:58:00,
2013-01-26 02:14:00,51.7,46.0,30.20,SSW,196,0.0,0.0,81,0.00,,,0.00,0,weatherlink.com 1.10,2013-01-26 07:14:00,
2013-01-26 02:29:00,51.6,46.0,30.20,SSW,196,0.0,0.0,82,0.00,,,0.00,0,weatherlink.com 1.10,2013-01-26 07:29:00,
2013-01-26 02:44:00,51.4,46.0,30.20,SSW,196,0.0,0.0,83,0.00,,,0.00,0,weatherlink.com 1.10,2013-01-26 07:44:00,
2013-01-26 02:59:00,51.4,47.0,30.19,SSW,196,0.0,0.0,84,0.00,,,0.00,0,weatherlink.com 1.10,2013-01-26 07:59:00,
2013-01-26 03:14:00,51.0,47.0,30.19,SSW,195,0.0,0.0,85,0.00,,,0.00,0,weatherlink.com 1.10,2013-01-26 08:14:00,
2013-01-26 03:29:00,50.6,46.0,30.19,SSW,196,0.0,0.0,85,0.00,,,0.00,0,weatherlink.com 1.10,2013-01-26 08:29:00,
2013-01-26 03:44:00,50.5,47.0,30.18,SSW,196,0.0,0.0,86,0.00,,,0.00,0,weatherlink.com 1.10,2013-01-26 08:44:00,
2013-01-26 03:59:00,50.4,47.0,30.19,SSW,196,0.0,0.0,87,0.00,,,0.00,0,weatherlink.com 1.10,2013-01-26 08:59:00,
2013-01-26 04:14:00,50.2,47.0,30.19,SSW,196,0.0,0.0,87,0.00,,,0.00,0,weatherlink.com 1.10,2013-01-26 09:14:00,
2013-01-26 04:29:00,50.0,47.0,30.19,SSW,195,0.0,0.0,88,0.00,,,0.00,0,weatherlink.com 1.10,2013-01-26 09:29:00,
2013-01-26 04:44:00,50.7,48.0,30.19,SSW,196,0.0,0.0,89,0.00,,,0.00,0,weatherlink.com 1.10,2013-01-26 09:44:00,
2013-01-26 04:59:00,50.6,48.0,30.19,SSW,196,0.0,0.0,89,0.00,,,0.00,0,weatherlink.com 1.10,2013-01-26 09:59:00,
2013-01-26 05:14:00,50.7,48.0,30.20,SSW,196,0.0,0.0,90,0.00,,,0.00,0,weatherlink.com 1.10,2013-01-26 10:14:00,
2013-01-26 05:29:00,50.5,48.0,30.20,SSW,196,0.0,0.0,90,0.00,,,0.00,0,weatherlink.com 1.10,2013-01-26 10:29:00,
2013-01-26 05:44:00,50.0,47.0,30.20,SSW,196,0.0,0.0,90,0.00,,,0.00,0,weatherlink.com 1.10,2013-01-26 10:44:00,
2013-01-26 05:59:00,49.7,47.0,30.20,SSW,196,0.0,0.0,90,0.00,,,0.00,0,weatherlink.com 1.10,2013-01-26 10:59:00,
2013-01-26 06:14:00,50.1,47.0,30.20,SSW,196,0.0,0.0,90,0.00,,,0.00,0,weatherlink.com 1.10,2013-01-26 11:14:00,
2013-01-26 06:29:00,49.7,47.0,30.21,SSW,196,0.0,0.0,90,0.00,,,0.00,0,weatherlink.com 1.10,2013-01-26 11:29:00,
2013-01-26 06:44:00,49.6,47.0,30.21,SSW,196,0.0,0.0,90,0.00,,,0.00,0,weatherlink.com 1.10,2013-01-26 11:44:00,
2013-01-26 06:59:00,49.4,47.0,30.21,SSW,195,0.0,0.0,90,0.00,,,0.00,0,weatherlink.com 1.10,2013-01-26 11:59:00,
2013-01-26 07:14:00,49.2,47.0,30.22,SSW,196,0.0,0.0,91,0.00,,,0.00,0,weatherlink.com 1.10,2013-01-26 12:14:00,
2013-01-26 07:29:00,49.0,47.0,30.22,SSW,196,0.0,0.0,91,0.00,,,0.00,12,weatherlink.com 1.10,2013-01-26 12:29:00,
2013-01-26 07:44:00,49.3,47.0,30.23,SSW,197,0.0,0.0,91,0.00,,,0.00,23,weatherlink.com 1.10,2013-01-26 12:44:00,
2013-01-26 07:59:00,49.6,47.0,30.23,SSW,197,0.0,0.0,92,0.00,,,0.00,30,weatherlink.com 1.10,2013-01-26 12:59:00,
2013-01-26 08:14:00,50.2,48.0,30.24,SSW,195,0.0,0.0,92,0.00,,,0.00,35,weatherlink.com 1.10,2013-01-26 13:14:00,
2013-01-26 08:29:00,52.8,51.0,30.24,SSW,196,0.0,0.0,94,0.00,,,0.00,114,weatherlink.com 1.10,2013-01-26 13:29:00,
2013-01-26 08:45:00,55.9,54.0,30.25,SSW,197,0.0,2.0,93,0.00,,,0.00,225,weatherlink.com 1.10,2013-01-26 13:45:00,
2013-01-26 08:59:00,58.1,55.0,30.25,SSW,196,0.0,2.0,89,0.00,,,0.00,271,weatherlink.com 1.10,2013-01-26 13:59:00,
2013-01-26 09:14:00,59.5,55.0,30.25,SSW,197,0.0,1.0,85,0.00,,,0.00,325,weatherlink.com 1.10,2013-01-26 14:14:00,
2013-01-26 09:29:00,61.5,56.0,30.25,SSE,167,0.0,2.0,81,0.00,,,0.00,380,weatherlink.com 1.10,2013-01-26 14:29:00,
2013-01-26 09:45:00,63.2,56.0,30.26,SW,215,0.0,2.0,77,0.00,,,0.00,432,weatherlink.com 1.10,2013-01-26 14:45:00,
2013-01-26 10:00:00,64.1,56.0,30.26,WNW,292,0.0,3.0,76,0.00,,,0.00,475,weatherlink.com 1.10,2013-01-26 15:00:00,
2013-01-26 10:15:00,65.3,56.0,30.26,WSW,249,0.0,5.0,71,0.00,,,0.00,517,weatherlink.com 1.10,2013-01-26 15:15:00,
2013-01-26 10:30:00,67.2,56.0,30.26,SW,219,2.0,5.0,68,0.00,,,0.00,552,weatherlink.com 1.10,2013-01-26 15:30:00,
2013-01-26 10:45:00,68.6,55.0,30.25,NNW,338,4.0,5.0,63,0.00,,,0.00,589,weatherlink.com 1.10,2013-01-26 15:45:00,
2013-01-26 11:00:00,68.8,55.0,30.25,WNW,283,2.0,5.0,62,0.00,,,0.00,619,weatherlink.com 1.10,2013-01-26 16:00:00,
2013-01-26 11:15:00,69.7,56.0,30.25,WNW,296,1.0,7.0,61,0.00,,,0.00,635,weatherlink.com 1.10,2013-01-26 16:15:00,
2013-01-26 11:30:00,69.4,55.0,30.25,WSW,247,0.0,4.0,61,0.00,,,0.00,663,weatherlink.com 1.10,2013-01-26 16:30:00,
2013-01-26 11:45:00,71.2,55.0,30.24,WSW,252,2.0,7.0,56,0.00,,,0.00,689,weatherlink.com 1.10,2013-01-26 16:45:00,
2013-01-26 12:00:00,71.6,53.0,30.23,SW,217,3.0,5.0,53,0.00,,,0.00,707,weatherlink.com 1.10,2013-01-26 17:00:00,
2013-01-26 12:15:00,71.3,52.0,30.23,WSW,250,4.0,8.0,51,0.00,,,0.00,715,weatherlink.com 1.10,2013-01-26 17:15:00,
2013-01-26 12:30:00,72.1,51.0,30.22,WSW,254,1.0,6.0,48,0.00,,,0.00,721,weatherlink.com 1.10,2013-01-26 17:30:00,
2013-01-26 12:45:00,72.5,52.0,30.21,WSW,248,3.0,7.0,49,0.00,,,0.00,715,weatherlink.com 1.10,2013-01-26 17:45:00,
2013-01-26 13:01:00,73.2,53.0,30.20,SW,234,0.0,6.0,49,0.00,,,0.00,712,weatherlink.com 1.10,2013-01-26 18:01:00,
2013-01-26 13:15:00,72.6,52.0,30.19,SW,217,2.0,10.0,49,0.00,,,0.00,715,weatherlink.com 1.10,2013-01-26 18:15:00,
2013-01-26 13:31:00,73.5,53.0,30.18,West,263,3.0,5.0,49,0.00,,,0.00,700,weatherlink.com 1.10,2013-01-26 18:31:00,
2013-01-26 13:45:00,73.8,52.0,30.17,NW,309,1.0,4.0,47,0.00,,,0.00,680,weatherlink.com 1.10,2013-01-26 18:45:00,
2013-01-26 14:00:00,74.2,54.0,30.17,WSW,248,5.0,5.0,49,0.00,,,0.00,654,weatherlink.com 1.10,2013-01-26 19:00:00,
2013-01-26 14:15:00,74.2,53.0,30.16,West,269,0.0,5.0,47,0.00,,,0.00,638,weatherlink.com 1.10,2013-01-26 19:15:00,
2013-01-26 14:30:00,74.0,54.0,30.16,WSW,253,5.0,8.0,49,0.00,,,0.00,606,weatherlink.com 1.10,2013-01-26 19:30:00,
2013-01-26 14:46:00,74.8,53.0,30.15,WSW,243,1.0,7.0,46,0.00,,,0.00,577,weatherlink.com 1.10,2013-01-26 19:46:00,
2013-01-26 15:00:00,74.9,53.0,30.15,SW,234,1.0,7.0,47,0.00,,,0.00,540,weatherlink.com 1.10,2013-01-26 20:00:00,
2013-01-26 15:16:00,75.1,54.0,30.15,NNW,341,0.0,5.0,48,0.00,,,0.00,504,weatherlink.com 1.10,2013-01-26 20:16:00,
2013-01-26 15:31:00,75.2,53.0,30.15,NNW,329,0.0,5.0,46,0.00,,,0.00,464,weatherlink.com 1.10,2013-01-26 20:31:00,
2013-01-26 15:46:00,74.9,53.0,30.15,WSW,257,0.0,4.0,47,0.00,,,0.00,420,weatherlink.com 1.10,2013-01-26 20:46:00,
2013-01-26 16:01:00,74.8,53.0,30.15,West,269,0.0,5.0,47,0.00,,,0.00,374,weatherlink.com 1.10,2013-01-26 21:01:00,
2013-01-26 16:16:00,75.0,53.0,30.15,WSW,245,0.0,8.0,47,0.00,,,0.00,325,weatherlink.com 1.10,2013-01-26 21:16:00,
2013-01-26 16:31:00,74.5,53.0,30.15,WSW,246,2.0,5.0,48,0.00,,,0.00,255,weatherlink.com 1.10,2013-01-26 21:31:00,
2013-01-26 16:46:00,75.0,54.0,30.15,WSW,242,3.0,3.0,48,0.00,,,0.00,216,weatherlink.com 1.10,2013-01-26 21:46:00,
2013-01-26 17:01:00,74.3,54.0,30.15,WNW,286,0.0,1.0,50,0.00,,,0.00,160,weatherlink.com 1.10,2013-01-26 22:01:00,
2013-01-26 17:16:00,74.2,54.0,30.15,WNW,286,1.0,1.0,49,0.00,,,0.00,102,weatherlink.com 1.10,2013-01-26 22:16:00,
2013-01-26 17:31:00,73.6,55.0,30.16,WSW,253,0.0,3.0,52,0.00,,,0.00,47,weatherlink.com 1.10,2013-01-26 22:31:00,
2013-01-26 17:46:00,73.2,55.0,30.16,WSW,253,0.0,0.0,54,0.00,,,0.00,16,weatherlink.com 1.10,2013-01-26 22:46:00,
2013-01-26 18:01:00,71.3,55.0,30.16,WSW,253,0.0,0.0,57,0.00,,,0.00,5,weatherlink.com 1.10,2013-01-26 23:01:00,
2013-01-26 18:16:00,69.6,54.0,30.17,WSW,253,0.0,0.0,59,0.00,,,0.00,0,weatherlink.com 1.10,2013-01-26 23:16:00,
2013-01-26 18:31:00,68.0,54.0,30.17,WSW,253,0.0,0.0,61,0.00,,,0.00,0,weatherlink.com 1.10,2013-01-26 23:31:00,
2013-01-26 18:46:00,66.8,54.0,30.17,WSW,253,0.0,0.0,63,0.00,,,0.00,0,weatherlink.com 1.10,2013-01-26 23:46:00,
2013-01-26 19:01:00,65.7,54.0,30.17,WSW,253,0.0,0.0,65,0.00,,,0.00,0,weatherlink.com 1.10,2013-01-27 00:01:00,
2013-01-26 19:16:00,64.6,53.0,30.18,WSW,253,0.0,0.0,67,0.00,,,0.00,0,weatherlink.com 1.10,2013-01-27 00:16:00,
2013-01-26 19:31:00,63.8,53.0,30.18,WSW,253,0.0,0.0,69,0.00,,,0.00,0,weatherlink.com 1.10,2013-01-27 00:31:00,
2013-01-26 19:46:00,63.1,54.0,30.18,WSW,253,0.0,0.0,71,0.00,,,0.00,0,weatherlink.com 1.10,2013-01-27 00:46:00,
2013-01-26 20:01:00,62.5,54.0,30.18,WSW,253,0.0,0.0,73,0.00,,,0.00,0,weatherlink.com 1.10,2013-01-27 01:01:00,
2013-01-26 20:16:00,62.0,54.0,30.18,WSW,253,0.0,0.0,75,0.00,,,0.00,0,weatherlink.com 1.10,2013-01-27 01:16:00,
2013-01-26 20:31:00,61.7,54.0,30.18,WSW,253,0.0,0.0,77,0.00,,,0.00,0,weatherlink.com 1.10,2013-01-27 01:31:00,
2013-01-26 20:46:00,61.3,54.0,30.18,WSW,254,0.0,0.0,78,0.00,,,0.00,0,weatherlink.com 1.10,2013-01-27 01:46:00,
2013-01-26 21:01:00,60.8,54.0,30.19,East,86,0.0,4.0,79,0.00,,,0.00,0,weatherlink.com 1.10,2013-01-27 02:01:00,
2013-01-26 21:16:00,60.8,54.0,30.20,ESE,105,0.0,2.0,78,0.00,,,0.00,0,weatherlink.com 1.10,2013-01-27 02:16:00,
2013-01-26 21:31:00,61.4,55.0,30.20,SE,144,0.0,1.0,79,0.00,,,0.00,0,weatherlink.com 1.10,2013-01-27 02:31:00,
2013-01-26 21:46:00,61.1,55.0,30.20,SE,144,0.0,1.0,80,0.00,,,0.00,0,weatherlink.com 1.10,2013-01-27 02:46:00,
2013-01-26 22:01:00,60.7,55.0,30.21,SE,144,0.0,0.0,81,0.00,,,0.00,0,weatherlink.com 1.10,2013-01-27 03:01:00,
2013-01-26 22:16:00,59.9,54.0,30.21,SE,144,0.0,0.0,82,0.00,,,0.00,0,weatherlink.com 1.10,2013-01-27 03:16:00,
2013-01-26 22:31:00,59.1,54.0,30.22,SE,144,0.0,1.0,83,0.00,,,0.00,0,weatherlink.com 1.10,2013-01-27 03:31:00,
2013-01-26 22:46:00,58.7,54.0,30.22,SE,145,0.0,0.0,84,0.00,,,0.00,0,weatherlink.com 1.10,2013-01-27 03:46:00,
2013-01-26 23:01:00,58.1,53.0,30.22,SE,144,0.0,0.0,84,0.00,,,0.00,0,weatherlink.com 1.10,2013-01-27 04:01:00,
2013-01-26 23:16:00,58.3,54.0,30.22,SE,144,0.0,0.0,86,0.00,,,0.00,0,weatherlink.com 1.10,2013-01-27 04:16:00,
2013-01-26 23:31:00,58.2,54.0,30.22,SE,144,0.0,0.0,87,0.00,,,0.00,0,weatherlink.com 1.10,2013-01-27 04:31:00,
2013-01-26 23:46:00,58.0,54.0,30.22,SE,144,0.0,0.0,87,0.00,,,0.00,0,weatherlink.com 1.10,2013-01-27 04:46:00,